Location: Unspecified
(0.0000°N, 0.0000°E)
Time: 23:19:06
(UTC+00:00)

COSMOS 2391 - Pass Details

Date: 28 June 2024
Orbit: 1465 x 1506 km, 82.5° (Epoch: 21 July)

Event Time Altitude Azimuth Distance (km) Brightness Sun altitude
Rises 22:50:59 0° 339° (NNW) 4,614 11.4 -60.9°
Reaches altitude 10° 22:54:05 10° 332° (NNW) 3,640 10.8 -61.3°
Enters shadow 22:54:40 12° 330° (NNW) 3,470 10.6 -61.4°
